EW8077 Weather Reports


time (UTC)temp
C
wind
direction
speed
KPH
gust
KPH
rain 1hr
cm
rain 24hr
cm
rain mn
cm
humidity
%
barometer
mb
20260503233515 14 193 9.7 16.1 0.00 0.00 0.00 42 1014.4
20260503232517 14 215 6.4 9.7 0.00 0.00 0.00 41 1014.4
20260503231518 14 218 9.7 17.7 0.00 0.00 0.00 41 1014.4
20260503230520 15 216 6.4 11.3 0.00 0.00 0.00 41 1014.4
20260503225521 15 222 8.0 11.3 0.00 0.00 0.00 41 1014.5
20260503224522 16 246 9.7 17.7 0.00 0.00 0.00 41 1014.5
20260503223524 15 246 8.0 12.9 0.00 0.00 0.00 41 1014.7
20260503222525 15 262 4.8 6.4 0.00 0.00 0.00 41 1014.7
20260503221527 15 217 6.4 9.7 0.00 0.00 0.00 41 1014.7
20260503220528 15 239 6.4 9.7 0.00 0.00 0.00 41 1014.8
20260503215523 15 218 9.7 12.9 0.00 0.00 0.00 40 1014.7
20260503214519 15 231 8.0 16.1 0.00 0.00 0.00 40 1014.8
20260503213532 15 262 6.4 11.3 0.00 0.00 0.00 40 1014.7
20260503212516 15 216 4.8 9.7 0.00 0.00 0.00 40 1014.7
20260503211517 15 227 9.7 16.1 0.00 0.00 0.00 40 1014.7
20260503210519 16 227 6.4 12.9 0.00 0.00 0.00 40 1014.7
20260503205520 16 214 6.4 14.5 0.00 0.00 0.00 40 1014.6
20260503204521 16 243 8.0 11.3 0.00 0.00 0.00 40 1014.8
20260503203523 15 190 11.3 19.3 0.00 0.00 0.00 40 1014.8
20260503202524 16 240 6.4 11.3 0.00 0.00 0.00 40 1015.0
20260503201525 17 231 8.0 16.1 0.00 0.00 0.00 40 1015.0
20260503200526 16 213 11.3 14.5 0.00 0.00 0.00 40 1015.1
20260503195558 15 183 8.0 11.3 0.00 0.00 0.00 40 1015.4
20260503194524 15 266 9.7 16.1 0.00 0.00 0.00 40 1015.6
20260503193559 15 219 9.7 17.7 0.00 0.00 0.00 39 1015.9
20260503192532 16 253 8.0 11.3 0.00 0.00 0.00 39 1015.9
20260503191516 16 211 8.0 12.9 0.00 0.00 0.00 39 1016.0
20260503190517 16 249 8.0 12.9 0.00 0.00 0.00 39 1016.1
20260503185518 16 246 8.0 12.9 0.00 0.00 0.00 39 1016.3
20260503184520 16 212 9.7 12.9 0.00 0.00 0.00 39 1016.3
20260503183526 17 234 9.7 14.5 0.00 0.00 0.00 39 1016.4
20260503182528 17 267 9.7 14.5 0.00 0.00 0.00 39 1016.4
20260503181529 17 258 6.4 12.9 0.00 0.00 0.00 40 1016.5
20260503180525 16 295 6.4 9.7 0.00 0.00 0.00 40 1016.6
20260503175527 16 280 11.3 19.3 0.00 0.00 0.00 41 1016.8
20260503174528 17 271 8.0 11.3 0.00 0.00 0.00 41 1016.8
20260503173524 17 269 8.0 12.9 0.00 0.00 0.00 41 1016.9
20260503172559 16 211 11.3 19.3 0.00 0.00 0.00 41 1017.1
20260503171532 17 256 6.4 9.7 0.00 0.00 0.00 42 1017.2
20260503170536 16 253 6.4 9.7 0.00 0.00 0.00 42 1017.3
20260503150533 13 251 9.7 14.5 0.00 0.00 0.00 46 1018.2
20260503130539 9 217 8.0 12.9 0.00 0.00 0.00 60 1018.8
20260503110523 1 158 1.6 3.2 0.00 0.00 0.00 84 1018.3
20260503081517 0 122 1.6 3.2 0.00 0.03 0.00 85 1018.3
20260503080559 0 147 0.0 3.2 0.00 0.03 0.00 85 1018.3
20260503072524 1 83 1.6 3.2 0.00 0.05 0.00 83 1018.3
20260503071525 1 93 1.6 3.2 0.00 0.05 0.00 83 1018.3
20260503070527 1 207 1.6 4.8 0.00 0.05 0.00 82 1018.3
20260503054519 1 138 0.0 4.8 0.00 0.08 0.00 77 1018.7
20260503053521 1 245 1.6 3.2 0.00 0.08 0.00 76 1018.6
20260503052542 2 171 1.6 3.2 0.00 0.10 0.00 75 1018.7
20260503051523 2 198 0.0 3.2 0.00 0.10 0.00 73 1018.7
20260503050525 2 198 0.0 4.8 0.00 0.10 0.00 72 1018.7
20260503045526 2 176 0.0 3.2 0.00 0.10 0.00 71 1018.8
20260503044527 2 0.0 0.0 0.00 0.10 0.00 70 1018.8
20260503043523 3 180 0.0 3.2 0.00 0.13 0.00 69 1018.8
20260503042518 3 0.0 0.0 0.00 0.13 0.00 69 1018.8
20260503041532 3 203 0.0 4.8 0.00 0.13 0.00 68 1018.9
20260503040515 3 199 1.6 3.2 0.00 0.13 0.00 68 1019.0
20260503035516 4 208 1.6 3.2 0.00 0.13 0.13 68 1019.0
20260503034518 4 207 1.6 3.2 0.00 0.13 0.13 68 1019.0
20260503033520 5 225 0.0 1.6 0.00 0.13 0.13 68 1019.0
20260503032541 5 188 3.2 4.8 0.00 0.13 0.13 68 1019.0
20260503031522 5 135 0.0 4.8 0.00 0.13 0.13 68 1019.0
20260503030523 5 76 1.6 3.2 0.00 0.13 0.13 68 1019.0
20260503025525 5 248 1.6 3.2 0.00 0.13 0.13 68 1019.2
20260503024526 5 0.0 1.6 0.00 0.13 0.13 68 1019.4
20260503023527 5 125 0.0 3.2 0.00 0.13 0.13 68 1019.4
20260503022523 5 0.0 0.0 0.00 0.13 0.13 68 1019.3
20260503021518 5 0.0 0.0 0.00 0.13 0.13 67 1019.3
20260503020532 5 0.0 0.0 0.00 0.13 0.13 66 1019.4
20260503015536 5 0.0 0.0 0.00 0.13 0.13 65 1019.4
20260503014517 5 0.0 0.0 0.00 0.13 0.13 65 1019.4
20260503013518 5 0.0 0.0 0.00 0.13 0.13 64 1019.2
20260503012520 5 0.0 0.0 0.00 0.13 0.13 63 1019.3
20260503011522 5 0.0 0.0 0.00 0.13 0.13 63 1019.3
20260503010523 5 0.0 0.0 0.00 0.13 0.13 62 1019.2
20260503005524 5 0.0 0.0 0.00 0.13 0.13 62 1019.2
20260503004526 5 0.0 0.0 0.00 0.13 0.13 61 1019.2
20260503003522 5 0.0 0.0 0.00 0.13 0.13 61 1019.2
20260503002523 5 246 1.6 3.2 0.00 0.13 0.13 60 1019.2
20260503001524 5 241 1.6 3.2 0.00 0.13 0.13 60 1019.2
20260503000520 5 273 1.6 3.2 0.00 0.13 0.13 59 1019.2
20260502235527 5 56 1.6 6.4 0.00 0.13 0.13 59 1019.2
20260502234528 6 283 1.6 3.2 0.00 0.13 0.13 59 1019.0